Tracking 22287 objects as of 27-Jan-2021
HD Live streaming from Space Station
objects crossing your sky now

STARLINK-1751

Track STARLINK-1751 now!
10-day predictions
STARLINK-1751 is classified as:


NORAD ID: 46378
Int'l Code: 2020-062BF
Perigee: 473.6 km
Apogee: 475.4 km
Inclination: 53.0 °
Period: 93.9 minutes
Semi major axis: 6845 km
RCS: Unknown
Launch date: September 3, 2020
Source: United States (US)
Launch site: AIR FORCE EASTERN TEST RANGE (AFETR)
aabbcc
Your satellite tracking list
Your tracking list is empty




NASA's NSSDC Master Catalog

Two Line Element Set (TLE):
1 46378U 20062BF  21027.25001157 -.00979437  00000-0 -32943-1 0  9994
2 46378  52.9965  76.1366 0001321  70.2402 238.8586 15.32845717 23623
Source of the keplerian elements: AFSPC